Peru, IL

4:15 PM CDT on August 22, 2017 (GMT -0500)
Illinois Valley Regional-Duncan

Weather History for KVYS - February, 2013

Change the Weather History Date:

Monday, February 11, 2013

  Actual Average Record
Temperature  
Mean Temperature 36 °F -  
Max Temperature 42 °F 33 °F 58 °F (1977)
Min Temperature 30 °F 16 °F -16 °F (2014)
Degree Days  
Heating Degree Days 29    
Moisture  
Dew Point 25 °F    
Average Humidity 72    
Maximum Humidity 76    
Minimum Humidity 67    
Precipitation  
Precipitation 0.00 in - - ()
Sea Level Pressure  
Sea Level Pressure 29.83 in    
Wind  
Wind Speed 25 mph (West)    
Max Wind Speed 38 mph    
Max Gust Speed 50 mph    
Visibility 10 miles    
Events      
Averages and records for this station are not official NWS values.
T = Trace of Precipitation, MM = Missing Value Source: NWS Daily Summary

Daily Weather History Graph

Daily Weather History Graph

Search for Another Location

Airport or City:

Trip Planner

Search our weather history database for the weather conditions in past years. The results will help you decide how hot, cold, wet, or windy it might be!

Date:

Astronomy

Feb. 11, 2013 Rise Set
Actual Time 6:56 AM CST 5:25 PM CST
Civil Twilight 6:27 AM CST 5:54 PM CST
Nautical Twilight 5:55 AM CST 6:27 PM CST
Astronomical Twilight 5:23 AM CST 6:59 PM CST
Moon 7:19 AM CST (2/11) 7:24 PM CST (2/11)
Length of Visible Light 11h 26m
Length of Day
10h 29m
Waxing Crescent, 3% of the Moon is Illuminated
Feb 11
Waxing Crescent
Feb 17
First Quarter
Feb 25
Full
Mar 4
Last Quarter
Mar 11
New

Hourly Weather History & Observations

Time (CST) Temp. Windchill Dew Point Humidity Pressure Visibility Wind Dir Wind Speed Gust Speed Precip Events Conditions
12:15 AM 42.1 °F 32.3 °F 32.0 °F 67% 29.55 in 10.0 mi WSW 24.2 mph 39.1 mph N/A   Overcast
12:35 AM 41.0 °F 30.7 °F 32.0 °F 70% 29.56 in 10.0 mi WSW 25.3 mph 42.6 mph N/A   Overcast
12:55 AM 40.1 °F 29.2 °F 32.0 °F 73% 29.56 in 10.0 mi WSW 26.5 mph 38.0 mph N/A   Overcast
1:15 AM 39.6 °F 28.7 °F 32.0 °F 74% 29.57 in 10.0 mi WSW 25.3 mph 40.3 mph N/A   Overcast
1:35 AM 38.7 °F 26.9 °F 30.9 °F 74% 29.57 in 10.0 mi WSW 28.8 mph 43.7 mph N/A   Overcast
1:55 AM 37.9 °F 27.1 °F 30.6 °F 75% 29.59 in 10.0 mi WSW 23.0 mph 34.5 mph N/A   Overcast
2:15 AM 37.4 °F 25.6 °F 30.0 °F 75% 29.60 in 10.0 mi West 26.5 mph 42.6 mph N/A   Overcast
2:35 AM 36.9 °F 24.7 °F 29.8 °F 76% 29.61 in 10.0 mi WSW 27.6 mph 34.5 mph N/A   Overcast
2:55 AM 36.0 °F 24.2 °F 28.6 °F 75% 29.61 in 10.0 mi WSW 24.2 mph 35.7 mph N/A   Overcast
3:15 AM 35.6 °F 22.7 °F 28.2 °F 75% 29.61 in 10.0 mi WSW 28.8 mph 39.1 mph N/A   Overcast
3:35 AM 35.2 °F 21.4 °F 27.9 °F 74% 29.62 in 10.0 mi WSW 33.4 mph 44.9 mph N/A   Overcast
3:55 AM 35.1 °F 22.0 °F 27.1 °F 73% 29.63 in 10.0 mi West 28.8 mph 42.6 mph N/A   Overcast
4:15 AM 34.9 °F 21.8 °F 27.0 °F 73% 29.63 in 10.0 mi West 28.8 mph 44.9 mph N/A   Overcast
4:35 AM 34.7 °F 21.1 °F 26.6 °F 72% 29.64 in 10.0 mi West 31.1 mph 43.7 mph N/A   Overcast
4:55 AM 34.3 °F 20.2 °F 25.2 °F 69% 29.65 in 10.0 mi West 33.4 mph 49.5 mph N/A   Overcast
5:15 AM 34.3 °F 21.3 °F 25.5 °F 70% 29.65 in 10.0 mi WSW 27.6 mph 43.7 mph N/A   Overcast
5:35 AM 34.3 °F 20.2 °F 24.4 °F 67% 29.65 in 10.0 mi West 33.4 mph 46.0 mph N/A   Overcast
5:55 AM 34.3 °F 20.4 °F 24.8 °F 68% 29.66 in 10.0 mi West 32.2 mph 41.4 mph N/A   Overcast
6:15 AM 34.3 °F 21.0 °F 25.3 °F 70% 29.67 in 10.0 mi WSW 28.8 mph 38.0 mph N/A   Overcast
6:35 AM 34.3 °F 21.3 °F 25.7 °F 71% 29.69 in 10.0 mi WSW 27.6 mph 34.5 mph N/A   Overcast
6:55 AM 34.3 °F 21.3 °F 25.7 °F 71% 29.70 in 10.0 mi West 27.6 mph 42.6 mph N/A   Overcast
7:15 AM 34.3 °F 21.5 °F 25.3 °F 70% 29.71 in 10.0 mi West 26.5 mph 43.7 mph N/A   Overcast
7:35 AM 34.3 °F 20.0 °F 25.5 °F 70% 29.71 in 10.0 mi West 34.5 mph 41.4 mph N/A   Overcast
7:55 AM 34.3 °F 20.8 °F 25.7 °F 71% 29.73 in 10.0 mi West 29.9 mph 46.0 mph N/A   Overcast
8:15 AM 34.3 °F 20.4 °F 25.2 °F 69% 29.74 in 10.0 mi West 32.2 mph 42.6 mph N/A   Overcast
8:35 AM 34.3 °F 19.4 °F 25.0 °F 69% 29.74 in 10.0 mi West 38.0 mph 48.3 mph N/A   Overcast
8:55 AM 34.3 °F 21.0 °F 25.2 °F 69% 29.76 in 10.0 mi West 28.8 mph 36.8 mph N/A   Overcast
9:15 AM 34.2 °F 20.1 °F 24.6 °F 68% 29.77 in 10.0 mi West 32.2 mph 42.6 mph N/A   Overcast
9:35 AM 34.3 °F 20.0 °F 24.6 °F 68% 29.78 in 10.0 mi West 34.5 mph 43.7 mph N/A   Overcast
9:55 AM 34.3 °F 20.8 °F 24.8 °F 68% 29.80 in 10.0 mi West 29.9 mph 40.3 mph N/A   Overcast
10:15 AM 33.6 °F 20.1 °F 24.4 °F 69% 29.81 in 10.0 mi West 28.8 mph 41.4 mph N/A   Overcast
10:35 AM 33.4 °F 20.1 °F 24.4 °F 70% 29.82 in 10.0 mi West 27.6 mph 43.7 mph N/A   Overcast
10:55 AM 33.8 °F 20.5 °F 24.4 °F 69% 29.83 in 10.0 mi West 27.6 mph 38.0 mph N/A   Overcast
11:15 AM 33.3 °F 19.3 °F 24.3 °F 70% 29.84 in 10.0 mi West 29.9 mph 39.1 mph N/A   Overcast
11:35 AM 33.1 °F 21.2 °F 24.6 °F 71% 29.85 in 10.0 mi West 20.7 mph 38.0 mph N/A   Overcast
11:55 AM 33.1 °F 19.3 °F 24.3 °F 70% 29.85 in 10.0 mi West 28.8 mph 38.0 mph N/A   Overcast
12:15 PM 33.1 °F 19.6 °F 24.6 °F 71% 29.86 in 10.0 mi West 27.6 mph 41.4 mph N/A   Overcast
12:35 PM 33.1 °F 20.1 °F 24.3 °F 70% 29.87 in 10.0 mi West 25.3 mph 41.4 mph N/A   Overcast
12:55 PM 33.1 °F 19.6 °F 23.9 °F 69% 29.87 in 10.0 mi West 27.6 mph 36.8 mph N/A   Overcast
1:15 PM 33.1 °F 21.2 °F 24.3 °F 70% 29.88 in 10.0 mi West 20.7 mph 29.9 mph N/A   Overcast
1:35 PM 33.1 °F 19.3 °F 24.3 °F 70% 29.88 in 10.0 mi West 28.8 mph 38.0 mph N/A   Overcast
1:55 PM 33.1 °F 20.3 °F 24.1 °F 70% 29.89 in 10.0 mi West 24.2 mph 39.1 mph N/A   Overcast
2:15 PM 33.1 °F 19.6 °F 23.9 °F 69% 29.90 in 10.0 mi West 27.6 mph 38.0 mph N/A   Overcast
2:35 PM 33.1 °F 21.2 °F 23.7 °F 68% 29.91 in 10.0 mi West 20.7 mph 38.0 mph N/A   Overcast
2:55 PM 32.9 °F 20.1 °F 23.7 °F 69% 29.92 in 10.0 mi West 24.2 mph 34.5 mph N/A   Overcast
3:15 PM 32.5 °F 21.2 °F 23.9 °F 70% 29.93 in 10.0 mi West 18.4 mph 35.7 mph N/A   Overcast
3:35 PM 32.9 °F 21.3 °F 23.4 °F 68% 29.94 in 10.0 mi West 19.6 mph 32.2 mph N/A   Overcast
3:55 PM 32.5 °F 20.5 °F 23.7 °F 70% 29.94 in 10.0 mi West 20.7 mph 29.9 mph N/A   Overcast
4:55 PM 32.0 °F 20.8 °F 24.1 °F 73% 29.97 in 10.0 mi West 17.3 mph 25.3 mph N/A   Overcast
5:15 PM 32.2 °F 22.3 °F 24.6 °F 74% 29.98 in 10.0 mi West 13.8 mph - N/A   Overcast
5:35 PM 32.2 °F 20.4 °F 23.9 °F 72% 29.98 in 10.0 mi West 19.6 mph 32.2 mph N/A   Overcast
5:55 PM 32.0 °F 21.6 °F 24.4 °F 74% 30.00 in 10.0 mi West 15.0 mph 28.8 mph N/A   Overcast
6:15 PM 32.0 °F 21.2 °F 24.8 °F 75% 30.00 in 10.0 mi West 16.1 mph 24.2 mph N/A   Overcast
6:35 PM 32.0 °F 21.2 °F 24.3 °F 73% 30.01 in 10.0 mi West 16.1 mph 25.3 mph N/A   Overcast
6:55 PM 32.0 °F 20.5 °F 24.6 °F 74% 30.02 in 10.0 mi West 18.4 mph 23.0 mph N/A   Overcast
7:15 PM 32.0 °F 21.6 °F 24.6 °F 74% 30.02 in 10.0 mi WNW 15.0 mph 21.9 mph N/A   Overcast
7:35 PM 32.0 °F 22.1 °F 25.0 °F 75% 30.02 in 10.0 mi West 13.8 mph 19.6 mph N/A   Overcast
7:55 PM 32.0 °F 19.8 °F 25.2 °F 76% 30.02 in 10.0 mi West 20.7 mph 27.6 mph N/A   Overcast
8:15 PM 32.0 °F 21.6 °F 23.9 °F 72% 30.03 in 10.0 mi WNW 15.0 mph 26.5 mph N/A   Overcast
8:35 PM 32.0 °F 20.5 °F 23.9 °F 72% 30.02 in 10.0 mi West 18.4 mph 25.3 mph N/A   Overcast
8:55 PM 32.0 °F 20.5 °F 24.1 °F 73% 30.04 in 10.0 mi WNW 18.4 mph 25.3 mph N/A   Overcast
9:15 PM 31.1 °F 19.3 °F 23.0 °F 72% 30.04 in 10.0 mi West 18.4 mph 28.8 mph N/A   Overcast
9:35 PM 30.9 °F 19.4 °F 23.0 °F 72% 30.04 in 10.0 mi West 17.3 mph 25.3 mph N/A   Overcast
9:55 PM 30.9 °F 20.7 °F 23.9 °F 75% 30.04 in 10.0 mi WNW 13.8 mph 17.3 mph N/A   Overcast
10:15 PM 30.6 °F 21.8 °F 23.5 °F 75% 30.05 in 10.0 mi West 10.4 mph - N/A   Overcast
10:35 PM 30.7 °F 19.6 °F 23.0 °F 73% 30.05 in 10.0 mi WNW 16.1 mph 23.0 mph N/A   Overcast
10:55 PM 30.2 °F 20.2 °F 22.8 °F 74% 30.06 in 10.0 mi West 12.7 mph 21.9 mph N/A   Overcast
11:15 PM 30.6 °F 20.7 °F 23.2 °F 74% 30.07 in 10.0 mi WNW 12.7 mph 20.7 mph N/A   Overcast
11:35 PM 30.6 °F 20.2 °F 23.0 °F 74% 30.07 in 10.0 mi WNW 13.8 mph - N/A   Overcast
11:55 PM 30.6 °F 19.4 °F 23.4 °F 75% 30.08 in 10.0 mi West 16.1 mph 21.9 mph N/A   Overcast